sat.trackr.live / text

‹ back to catalog

STARLINK-30772

NORAD 58135 · 2023-162T

PAYLOAD ACTIVE UNKNOWN

§ Identity

Operator
Country
US
Launch date
2023-10-22
Launch site
AFETR
Launch vehicle
Mass (kg)
RCS (m²)

Purposes: comms

External: N2YO · Heavens-Above · Gunter

§ Orbital elements

Epoch: 2026-05-25T03:54:54.807840Z

Period
94.27 min
Inclination
43.0057°
Eccentricity
0.0001971
Mean motion
15.27573680 rev/d
Perigee alt
481.7 km
Apogee alt
484.4 km
Semi-major
6,861.2 km
B*
8.7961e-5
RAAN
60.5227°
Arg perigee
266.0884°
Mean anomaly
93.9743°
Rev number
14,400

§ Raw data

STARLINK-307721 58135U 23162T   26145.16313435  .00002158  00000+0  87961-4 0  99902 58135  43.0057  60.5227 0001971 266.0884  93.9743 15.27573680144005

JSON: /api/v1/satellites/58135 · /tle

For live sub-satellite position, see the globe view (requires WebGL).

§ Visibility from observer

Set your observer location to see the next 7 days of passes ≥ 10°. The values pass through the URL so the page stays shareable.

No JS? Fill the form by hand. The geolocation button needs JavaScript.